STARLINK-4655, 53613

Orbit data source: Space-Track

STARLINK-4655, 53613 is a payload satellite owned by SpaceX/Seattle (US) in LEO that was launched on Sun, 28 Aug 2022 UTC via an FALCON 9 launch vehicle from the Air Force Eastern Test Range (AFETR). Payload-class satellites include a variety of spacecraft equipped with specific instruments for various scientific and technological missions. These include communications satellites like Starlink; space stations such as the ISS; scientific satellites like the Hubble; Earth observation satellites from companies like Planet Labs, Umbra, and HawkEye 360; GPS; miniature CubeSats for education and research; and military/defense satellites.

Loading next visibility...
Identifier
53613, 2022-104AB
Orbit
LEO
Country
Flag of USUS
Related business
Manufacturer
SpaceX/Seattle
Mission
Operational Commercial Communications
Bus & Motor
STARLINK, Unknown motor
Mass
300 kg wet, ~290 kg dry
Launch date (UTC)
2022-08-28 (3 years ago)
Launch vehicle
FALCON 9
Launch site
Air Force Eastern Test Range (AFETR)
Object type
Payload
Rocket body
Debris
Shape & HBR
Box + 1 Pan, 10.1 m
Radar Cross Section
13.562 m², Large (>1 m²)

Expand to show TLE details & history
Last TLE update: 17 hours ago

TLE from 17 hours ago
0 STARLINK-4655
1 53613U 22104AB  25349.90123752  .00000727  00000-0  63767-4 0  9998
2 53613  53.2181 250.4155 0001432  89.2140 270.9016 15.08839186182988
Epoch: 2025-12-15T21:37Z
TLE epoch observation values (Epoch: 2025-12-15T21:37:46.921Z)
Latitude
-0.00005°
Longitude
-158.8232°
Altitude
540.628 km
Speed
7.593 km/s
True Right ascension
16h 41m 39s
True Declination
0° 00' 00"
Sunlit
Object was in daylight at epoch
Visualization orbit readout
Latitude
Unknown
Longitude
Unknown
Altitude
Unknown
Speed
Unknown
Apparent Right ascension
Unknown
Apparent Declination
Unknown
Sunlit
N/A
Visualization observer readout
Local Sidereal Time
12:54:16
Azimuth
Unknown
Elevation
Unknown
Doppler factor
Unknown
Orbital elements
Apogee altitude
540.981 km
Perigee altitude
539 km
Semi-major axis
6,918.128 km
Eccentricity
0.00014
Inclination
53.2181°
RAAN
250.4155°
Arg. of periapsis
89.214°
True anomaly
270.88519°
Mean anomaly
270.9016°
Eccentric anomaly
270.8934°
Mean motion
3.7719 °/min
Orbital period
95.44 mins
BSTAR
0.000063767
Loading maneuver chart data...
Computing Atmospheric mass density...
Loading historical data...
Loading historical data...
Loading historical data...
Loading historical data...
Loading historical data...
Loading historical data...
Loading historical data...

Documentation

Showing up to 5 results
|